1375747228823,0.847378
1375747288823,0.844301
1375747348823,0.840989
1375747408823,0.838061
1375747468823,0.849499
1375747528823,0.839886
1375747588823,0.846721
1375747648823,0.843801
1375747708823,0.846847
1375747768823,0.847106
1375747828823,0.850068
1375747888823,0.848281
1375747948823,0.843675
1375748008823,0.846321
1375748068823,0.851287
1375748128823,0.851081
1375748188823,0.845024
1375748248823,0.845040
1375748308823,0.844998
1375748368823,0.844621
1375748428823,0.850403
1375748488823,0.854617
1375748548823,0.850375
1375748608823,0.847812
1375748668823,0.850942
1375748728823,0.844382
1375748788823,0.849500
1375748848823,0.847822
1375748908823,0.847162
1375748968823,0.853904
1375749028823,0.846889
1375749088823,0.846287
1375749148823,0.853410
1375749208823,0.847838
1375749268823,0.839794
1375749328823,0.840545
1375749388823,0.841529
1375749448823,0.846143
1375749508823,0.852985
1375749568823,0.848451
1375749628823,0.843060
1375749688823,0.839757
1375749748823,0.847278
1375749808823,0.848309
1375749868823,0.848502
1375749928823,0.841296
1375749988823,0.848445
1375750048823,0.838971
1375750108823,0.848048
1375750168823,0.848766
1375750228823,0.831853
1375750288823,0.842958
1375750348823,0.845267
1375750408823,0.846003
1375750468823,0.841631
1375750528823,0.854540
1375750588823,0.847848
1375750648823,0.850991
1375750708823,0.848072
1375750768823,0.841098
1375750828832,0.844332
1375750888832,0.844777
1375750948832,0.843948
1375751008832,0.840800
1375751068832,0.841010
1375751128832,0.846590
1375751188832,0.845246
1375751248832,0.840884
1375751308832,0.849025
1375751368832,0.843836
1375751428832,0.842304
1375751488832,0.842286
1375751548832,0.850073
1375751608832,0.850136
1375751668832,0.843260
1375751728832,0.844281
1375751788832,0.849095
1375751848832,0.846067
1375751908832,0.845492
1375751968832,0.849108
1375752028832,0.839980
1375752088832,0.837584
1375752148832,0.837420
1375752208832,0.840716
1375752268832,0.849406
1375752328832,0.847506
1375752388832,0.844074
1375752448832,0.844862
1375752508832,0.846980
1375752568832,0.853674
1375752628832,0.850516
1375752688832,0.843637
1375752748832,0.852892
1375752808832,0.847373
1375752868832,0.847436
1375752928832,0.846851
1375752988832,0.850213
1375753048832,0.848348
1375753108832,0.854692
1375753168832,0.848412
1375753228832,0.846922
1375753288832,0.848943
1375753348832,0.855059
1375753408832,0.852117
1375753468832,0.849097
1375753528832,0.852468
1375753588832,0.849159
1375753648832,0.858762
1375753708832,0.865647
1375753768832,0.862697
1375753828832,0.860456
1375753888832,0.865247
1375753948832,0.881944
1375754008832,0.863005
1375754068832,0.861010
1375754128832,0.871852
1375754188832,0.863249
1375754248832,0.860503
1375754308832,0.866426
1375754368832,0.860444
1375754428842,0.870801
1375754488842,0.867662
1375754548842,0.862558
1375754608842,0.864794
1375754668842,0.862715
1375754728842,0.869028
1375754788842,0.869070
1375754848842,0.868585
1375754908842,0.859112
1375754968842,0.853635
1375755028842,0.866521
1375755088842,0.855775
1375755148842,0.865147
1375755208842,0.861983
1375755268842,0.862358
1375755328842,0.864599
1375755388842,0.861408
1375755448842,0.860577
1375755508842,0.857851
1375755568842,0.855505
1375755628842,0.855953
1375755688842,0.863363
1375755748842,0.860722
1375755808842,0.860127
1375755868842,0.859497
1375755928842,0.849649
1375755988842,0.860349
1375756048842,0.857751
1375756108842,0.854352
1375756168842,0.861061
1375756228842,0.849558
1375756288842,0.852197
1375756348842,0.860066
1375756408842,0.851906
1375756468842,0.847331
1375756528842,0.850893
1375756588842,0.847774
1375756648842,0.853347
1375756708842,0.857658
1375756768842,0.852045
1375756828842,0.847199
1375756888842,0.845088
1375756948842,0.853765
1375757008842,0.848910
1375757068842,0.851239
1375757128842,0.858058
1375757188842,0.851150
1375757248842,0.851970
1375757308842,0.851186
1375757368842,0.853629
1375757428842,0.851851
1375757488842,0.845636
1375757548842,0.851577
1375757608842,0.853411
1375757668842,0.854912
1375757728842,0.849414
1375757788842,0.853414
1375757848842,0.856014
1375757908842,0.852268
1375757968842,0.843875
1375758028851,0.846749
1375758088851,0.852433
1375758148851,0.852969
1375758208851,0.847805
1375758268851,0.847307
1375758328851,0.847502
1375758388851,0.858308
1375758448851,0.854174
1375758508851,0.842925
1375758568851,0.853946
1375758628851,0.851072
1375758688851,0.853740
1375759228851,0.842733
1375759288851,0.848747
1375759348851,0.851157
1375759408851,0.844056
1375759468851,0.843960
1375759528851,0.845497
1375759588851,0.851520
1375759648851,0.847110
1375759708851,0.846336
1375759768851,0.839301
1375759828851,0.843377
1375759888851,0.855791
1375759948851,0.851684
1375760008851,0.848023
1375760068851,0.845945
1375760128851,0.844892
1375760188851,0.845247
1375760248851,0.843862
1375760308851,0.845808
1375760368851,0.848082
1375760428851,0.844377
1375760488851,0.838111
1375760548851,0.839009
1375760608851,0.840867
1375760668851,0.840954
1375760728851,0.844360
1375760788851,0.852975
1375760848851,0.845223
1375760908851,0.843648
1375760968851,0.850642
1375761028851,0.848331
1375761088851,0.856941
1375761148851,0.849712
1375761208851,0.850318
1375761268851,0.846146
1375761328851,0.850141
1375761388851,0.842116
1375761448851,0.849496
1375761508851,0.847675
1375761568851,0.850205
1375761628860,0.849796
1375761688860,0.854150
1375761748860,0.846874
1375761808860,0.850341
1375761868860,0.853978
1375761928860,0.844411
1375761988860,0.852683
1375762048860,0.851553
1375762108860,0.854841
1375762168860,0.842767
1375762228860,0.853824
1375762288860,0.857307
1375762348860,0.859000
1375762408860,0.852815
1375762468860,0.852170
1375762528860,0.850725
1375762588860,0.850125
1375762648860,0.846997
1375762708860,0.846026
1375762768860,0.855599
1375762828860,0.847730
1375762888860,0.858313
1375762948860,0.849971
1375763008860,0.850375
1375763068860,0.845263
1375763128860,0.845455
1375763188860,0.845306
1375763248860,0.846888
1375763308860,0.848761
1375763368860,0.850607
1375763428860,0.847122
1375763488860,0.842600
1375763548860,0.846863
1375763608860,0.845290
1375763668860,0.847556
1375763728860,0.844097
1375763788860,0.848448
1375763848860,0.844206
1375763908860,0.834402
1375763968860,0.848942
1375764028860,0.849200
1375764088860,0.848013
1375764148860,0.850511
1375764208860,0.849926
1375764268860,0.847567
1375764328860,0.845695
1375764388860,0.842739
1375764448860,0.842264
1375764508860,0.850696
1375764568860,0.851477
1375764628860,0.846818
1375764688860,0.853312
1375764748860,0.850341
1375764808860,0.843061
1375764868860,0.848187
1375764928860,0.848932
1375764988860,0.846318
1375765048860,0.848796
1375765108860,0.843529
1375765168860,0.847846
1375765228869,0.848219
1375765288869,0.847684
1375765348869,0.851506
1375765408869,0.839186
1375765468869,0.839814
1375765528869,0.851844
1375765588869,0.843076
1375765648869,0.835565
1375765708869,0.846186
1375765768869,0.846772
1375765828869,0.845639
1375765888869,0.841967
1375765948869,0.845300
1375766008869,0.843973
1375766068869,0.852444
1375766128869,0.847938
1375766188869,0.848497
1375766248869,0.841018
1375766308869,0.841293
1375766368869,0.839984
1375766428869,0.849011
1375766488869,0.850886
1375766548869,0.845134
1375766608869,0.848039
1375766668869,0.860770
1375766728869,0.852107
1375766788869,0.852512
1375766848869,0.849845
1375766908869,0.848278
1375766968869,0.850585
1375767028869,0.841024
1375767088869,0.846347
1375767148869,0.851225
1375767208869,0.847286
1375767268869,0.856591
1375767328869,0.849912
1375767388869,0.854537
1375767448869,0.842844
1375767508869,0.845224
1375767568869,0.850546
1375767628869,0.846474
1375767688869,0.845752
1375767748869,0.843015
1375767808869,0.842304
1375767868869,0.848693
1375767928869,0.849159
1375767988869,0.843925
1375768048869,0.849461
1375768108869,0.839388
1375768168869,0.842486
1375768228869,0.847151
1375768288869,0.847813
1375768348869,0.848222
1375768408869,0.846453
1375768468869,0.847848
1375768528869,0.843440
1375768588869,0.844045
1375768648869,0.851116
1375768708869,0.845572
1375768768869,0.846336
1375768828878,0.841529
1375768888878,0.848444
1375768948878,0.845999
1375769008878,0.845614
1375769068878,0.845626
1375769128878,0.844253
1375769188878,0.841107
1375769248878,0.847938
1375769308878,0.843664
1375769368878,0.833134
1375769428878,0.839457
1375769488878,0.838976
1375769548878,0.846870
1375769608878,0.853379
1375769668878,0.844204
1375769728878,0.838601
1375769788878,0.839322
1375769848878,0.837014
1375769908878,0.847540
1375769968878,0.836995
1375770028878,0.842135
1375770088878,0.844079
1375770148878,0.838322
1375770208878,0.841594
1375770268878,0.841417
1375770328878,0.840705
1375770388878,0.844384
1375770448878,0.840734
1375770508878,0.839044
1375770568878,0.841072
1375770628878,0.836282
1375770688878,0.840851
1375770748878,0.851880
1375770808878,0.838352
1375770868878,0.842470
1375770928878,0.842270
1375770988878,0.850400
1375771048878,0.844047
1375771108878,0.853080
1375771168878,0.849704
1375771228878,0.853674
1375771288878,0.851711
1375771348878,0.857648
1375771408878,0.863847
1375771468878,0.861579
1375771528878,0.858932
1375771588878,0.865046
1375771648878,0.859183
1375771708878,0.862580
1375771768878,0.867113
1375771828878,0.860692
1375771888878,0.863990
1375771948878,0.868132
1375772008878,0.866607
1375772068878,0.866116
1375772128878,0.867164
1375772188878,0.855162
1375772248878,0.863272
1375772308878,0.851530
1375772368878,0.858108
1375772428887,0.854757
1375772488887,0.859071
1375772548887,0.852011
1375772608887,0.854399
1375772668887,0.850317
1375772728887,0.846418
1375772788887,0.852024
1375772848887,0.842786
1375772908887,0.846282
1375772968887,0.841040
1375773028887,0.841566
1375773088887,0.844834
1375773148887,0.843386
1375773208887,0.854337
1375773268887,0.850280
1375773328887,0.834613
1375773388887,0.838602
1375773448887,0.846124
1375773508887,0.847385
1375773568887,0.841817
1375773628887,0.842209
1375773688887,0.845944
1375773748887,0.845252
1375773808887,0.843118
1375773868887,0.843339
1375773928887,0.841532
1375773988887,0.838798
1375774048887,0.844627
1375774108887,0.839060
1375774168887,0.843718
1375774228887,0.849567
1375774288887,0.842000
1375774348887,0.841991
1375774408887,0.841729
1375774468887,0.834838
1375774528887,0.836662
1375774588887,0.844891
1375774648887,0.837145
1375774708887,0.845209
1375774768887,0.837008
1375774828887,0.839916
1375774888887,0.843105
1375774948887,0.845234
1375775008887,0.839546
1375775068887,0.842757
1375775128887,0.839990
1375775188887,0.839078
1375775248887,0.833113
1375775308887,0.840162
1375775368887,0.838133
1375775428887,0.829971
1375775488887,0.831812
1375775548887,0.841993
1375775608887,0.830265
1375775668887,0.836661
1375775728887,0.835006
1375775788887,0.838354
1375775848887,0.841236
1375775908887,0.835196
1375775968887,0.830812
1375776028896,0.834306
1375776088896,0.833467
1375776148896,0.840822
1375776208896,0.841774
1375776268896,0.835390
1375776328896,0.840185
1375776388896,0.837853
1375776448896,0.838437
1375776508896,0.839013
1375776568896,0.841671
1375776628896,0.845391
1375776688896,0.842035
1375776748896,0.843503
1375776808896,0.833710
1375776868896,0.844630
1375776928896,0.837538
1375776988896,0.843077
1375777048896,0.838820
1375777108896,0.835844
1375777168896,0.840100
1375777228896,0.831390
1375777288896,0.836417
1375777348896,0.845247
1375777408896,0.840435
1375777468896,0.845512
1375777528896,0.840696
1375777588896,0.842194
1375777648896,0.839002
1375777708896,0.840666
1375777768896,0.832166
1375777828896,0.839709
1375777888896,0.839077
1375777948896,0.835675
1375778008896,0.834713
1375778068896,0.840356
1375778128896,0.835992
1375778188896,0.835061
1375778248896,0.836380
1375778308896,0.832237
1375778368896,0.836237
1375778428896,0.835498
1375778488896,0.836388
1375778548896,0.838662
1375778608896,0.843730
1375778668896,0.844633
1375778728896,0.842573
1375778788896,0.846629
1375778848896,0.842042
1375778908896,0.833635
1375778968896,0.841710
1375779028896,0.838231
1375779088896,0.834920
1375779148896,0.838908
1375779208896,0.841188
1375779268896,0.839275
1375779328896,0.829142
1375779388896,0.842203
1375779448896,0.836550
1375779508896,0.838814
1375779568896,0.839556
1375779628905,0.836977
1375779688905,0.839346
1375779748905,0.838057
1375779808905,0.851423
1375779868905,0.839772
1375779928905,0.843723
1375779988905,0.838528
1375780048905,0.836036
1375780108905,0.844414
1375780168905,0.846331
1375780228905,0.836816
1375780288905,0.840479
1375780348905,0.841385
1375780408905,0.841690
1375780468905,0.840780
1375780528905,0.843504
1375780588905,0.851175
1375780648905,0.841938
1375780708905,0.844508
1375780768905,0.842782
1375780828905,0.841381
1375780888905,0.843366
1375780948905,0.844510
1375781008905,0.843203
1375781068905,0.848553
1375781128905,0.843948
1375781188905,0.847109
1375781248905,0.837910
1375781308905,0.839199
1375781368905,0.845882
1375781428905,0.842172
1375781488905,0.843157
1375781548905,0.848907
1375781608905,0.842097
1375781668905,0.841248
1375781728905,0.848468
1375781788905,0.844707
1375781848905,0.849256
1375781908905,0.845502
1375781968905,0.851936
1375782028905,0.849794
1375782088905,0.841738
1375782148905,0.841655
1375782208905,0.857062
1375782268905,0.847803
1375782328905,0.847504
1375782388905,0.847554
1375782448905,0.848427
1375782508905,0.843538
1375782568905,0.846140
1375782628905,0.850111
1375782688905,0.845342
1375782748905,0.845048
1375782808905,0.852350
1375782868905,0.845997
1375782928905,0.845729
1375782988905,0.849915
1375783048905,0.847141
1375783108905,0.850799
1375783168905,0.851611
1375783228914,0.840573
1375783288914,0.846358
1375783348914,0.848281
1375783408914,0.854013
1375783468914,0.842186
1375783528914,0.848087
1375783588914,0.844158
1375783648914,0.844921
1375783708914,0.837746
1375783768914,0.847259
1375783828914,0.845133
1375783888914,0.846086
1375783948914,0.849421
1375784008914,0.843488
1375784068914,0.850747
1375784128914,0.840656
1375784188914,0.839580
1375784248914,0.840653
1375784308914,0.841194
1375784368914,0.842890
1375784428914,0.843777
1375784488914,0.844335
1375784548914,0.833705
1375784608914,0.840991
1375784668914,0.845445
1375784728914,0.844763
1375784788914,0.845742
1375784848914,0.848184
1375784908914,0.837578
1375784968914,0.842904
1375785028914,0.844901
1375785088914,0.846368
1375785148914,0.847076
1375785208914,0.842673
1375785268914,0.839370
1375785328914,0.844036
1375785388914,0.858437
1375785448914,0.847171
1375785508914,0.836645
1375785568914,0.847109
1375785628914,0.852167
1375785688914,0.850456
1375785748914,0.847270
1375785808914,0.843387
1375785868914,0.849480
1375785928914,0.839389
1375785988914,0.854637
1375786048914,0.851542
1375786108914,0.848516
1375786168914,0.849621
1375786228914,0.849804
1375786288914,0.844674
1375786348914,0.844009
1375786408914,0.846911
1375786468914,0.847938
1375786528914,0.856227
1375786588914,0.849154
1375786648914,0.851275
1375786708914,0.849077
1375786768914,0.853725
1375786828923,0.835786
1375786888923,0.850055
1375786948923,0.847535
1375787008923,0.846560
1375787068923,0.841121
1375787128923,0.845898
1375787188923,0.855101
1375787248923,0.848219
1375787308923,0.846707
1375787368923,0.848574
1375787428923,0.844560
1375787488923,0.846193
1375787548923,0.850135
1375787608923,0.845681
1375787668923,0.846530
1375787728923,0.843586
1375787788923,0.844929
1375787848923,0.850357
1375787908923,0.848996
1375787968923,0.846466
1375788028923,0.844469
1375788088923,0.848455
1375788148923,0.849207
1375788208923,0.847929
1375788268923,0.843957
1375788328923,0.847710
1375788388923,0.843699
1375788448923,0.849562
1375788508923,0.845811
1375788568923,0.850251
1375788628923,0.845608
1375788688923,0.849952
1375788748923,0.847120
1375788808923,0.845278
1375788868923,0.849028
1375788928923,0.848979
1375788988923,0.844073
1375789048923,0.841700
1375789108923,0.851092
1375789168923,0.844971
1375789228923,0.849016
1375789288923,0.850522
1375789348923,0.848661
1375789408923,0.845985
1375789468923,0.842691
1375789528923,0.846407
1375789588923,0.850872
1375789648923,0.846352
1375789708923,0.851088
1375789768923,0.846179
1375789828923,0.844337
1375789888923,0.848241
1375789948923,0.844149
1375790008923,0.849987
1375790068923,0.845776
1375790128923,0.846501
1375790188923,0.847608
1375790248923,0.846811
1375790308923,0.840437
1375790368923,0.841570
1375790428932,0.841441
1375790488932,0.843535
1375790548932,0.844841
1375790608932,0.846784
1375790668932,0.848602
1375790728932,0.844680
1375790788932,0.848732
1375790848932,0.842394
1375790908932,0.851037
1375790968932,0.842442
1375791028932,0.849274
1375791088932,0.835938
1375791148932,0.846890
1375791208932,0.845521
1375791268932,0.847731
1375791328932,0.843703
1375791388932,0.849823
1375791448932,0.844778
1375791508932,0.844503
1375791568932,0.846142
1375791628932,0.845499
1375791688932,0.846309
1375791748932,0.854427
1375791808932,0.852139
1375791868932,0.858864
1375791928932,0.845569
1375791988932,0.852420
1375792048932,0.853842
1375792108932,0.855616
1375792168932,0.840951
1375792228932,0.841899
1375792288932,0.854067
1375792348932,0.854460
1375792408932,0.844056
1375792468932,0.844921
1375792528932,0.853551
1375792588932,0.843907
1375792648932,0.844168
1375792708932,0.843611
1375792768932,0.844146
1375792828932,0.841145
1375792888932,0.852514
1375792948932,0.846955
1375793008932,0.847426
1375793068932,0.842434
1375793128932,0.846351
1375793188932,0.846628
1375793248932,0.852387
1375793308932,0.850319
1375793368932,0.852513
1375793428932,0.841166
1375793488932,0.849193
1375793548932,0.844389
1375793608932,0.853640
1375793668932,0.847435
1375793728932,0.845185
1375793788932,0.847227
1375793848932,0.847861
1375793908932,0.842490
1375793968932,0.844326
1375794028941,0.843381
1375794088941,0.851859
1375794148941,0.842010
1375794208941,0.851776
1375794268941,0.850307
1375794328941,0.847256
1375794388941,0.849778
1375794448941,0.849922
1375794508941,0.845048
1375794568941,0.851886
1375794628941,0.853631
1375794688941,0.854712
1375794748941,0.855351
1375794808941,0.859275
1375794868941,0.858265
1375794928941,0.864619
1375794988941,0.866679
1375795048941,0.854587
1375795108941,0.857826
1375795168941,0.856757
1375795228941,0.852806
1375795288941,0.850430
1375795348941,0.845859
1375795408941,0.849117
1375795468941,0.854859
1375795528941,0.853775
1375795588941,0.846303
1375795648941,0.845940
1375795708941,0.849332
1375795768941,0.852061
1375795828941,0.851187
1375795888941,0.848242
1375795948941,0.848015
1375796008941,0.849989
1375796068941,0.845968
1375796128941,0.849564
1375796188941,0.854320
1375796248941,0.847342
1375796308941,0.850176
1375796368941,0.848981
1375796428941,0.848049
1375796488941,0.849992
1375796548941,0.846812
1375796608941,0.855768
1375796668941,0.846213
1375796728941,0.849915
1375796788941,0.846775
1375796848941,0.846778
1375796908941,0.851810
1375796968941,0.849427
1375797028941,0.847784
1375797088941,0.854628
1375797148941,0.847712
1375797208941,0.855029
1375797268941,0.846430
1375797328941,0.847125
1375797388941,0.845132
1375797448941,0.847232
1375797508941,0.840286
1375797568941,0.847678
1375797628950,0.844454
1375797688950,0.845683
1375797748950,0.849761
1375797808950,0.840113
1375797868950,0.840906
1375797928950,0.851198
1375797988950,0.850856
1375798048950,0.833991
1375798108950,0.845643
1375798168950,0.838847
1375798228950,0.843160
1375798288950,0.849273
1375798348950,0.845799
1375798408950,0.847717
1375798468950,0.850216
1375798528950,0.846351
1375798588950,0.845767
1375798648950,0.839515
1375798708950,0.843793
1375798768950,0.843598
1375798828950,0.839418
1375798888950,0.842037
1375798948950,0.842595
1375799008950,0.848453
1375799068950,0.836374
1375799128950,0.848583
1375799188950,0.845675
1375799248950,0.841338
1375799308950,0.843538
1375799368950,0.839592
1375799428950,0.840583
1375799488950,0.842889
1375799548950,0.841611
1375799608950,0.840169
1375799668950,0.832540
1375804288960,0.829725
1375804348960,0.839678
1375804408960,0.843661
1375804468960,0.839099
1375804528960,0.845146
1375804588960,0.844321
1375804648960,0.839144
1375804708960,0.838861
1375804768960,0.852462
1375804828970,0.842252
1375804888970,0.838216
1375804948970,0.838776
1375805008970,0.843545
1375805068970,0.842071
1375805128970,0.841317
1375805188970,0.838521
1375805248970,0.849078
1375805308970,0.837667
1375805368970,0.844299
1375805428970,0.848726
1375805488970,0.846425
1375805548970,0.843271
1375805608970,0.850247
1375805668970,0.839410
1375805728970,0.837585
1375805788970,0.841870
1375805848970,0.838024
1375805908970,0.843201
1375805968970,0.836216
1375806028970,0.842250
1375806088970,0.837637
1375806148970,0.845977
1375806208970,0.844171
1375806268970,0.837018
1375806328970,0.839007
1375806388970,0.845687
1375806448970,0.837901
1375806508970,0.843696
1375806568970,0.841602
1375806628970,0.841859
1375806688970,0.839783
1375806748970,0.836317
1375806808970,0.844096
1375806868970,0.836761
1375806928970,0.845760
1375806988970,0.840780
1375807048970,0.840246
1375807108970,0.834300
1375807168970,0.841914
1375807228970,0.841328
1375807288970,0.840102
1375807348970,0.842048
1375807408970,0.837992
1375807468970,0.843568
1375807528970,0.837981
1375807588970,0.838210
1375807648970,0.843474
1375807708970,0.844848
1375807768970,0.847571
1375807828970,0.845592
1375807888970,0.835258
1375807948970,0.839372
1375808008970,0.839415
1375808068970,0.836656
1375808128970,0.853017
1375808188970,0.844347
1375808248970,0.845864
1375808308970,0.837595
1375808368970,0.838660
1375808428980,0.847609
1375808488980,0.834816
1375808548980,0.843127
1375808608980,0.836539
1375808668980,0.838708
1375808728980,0.841085
1375808788980,0.843154
1375808848980,0.837631
1375808908980,0.840048
1375808968980,0.843151
1375809028980,0.839729
1375809088980,0.839665
1375809148980,0.844409
1375809208980,0.841314
1375809268980,0.840284
1375809328980,0.839781
1375809388980,0.842099
1375809448980,0.841908
1375809508980,0.844295
1375809568980,0.847295
1375809628980,0.847126
1375809688980,0.852483
1375809748980,0.842260
1375809808980,0.843530
1375809868980,0.845592
1375809928980,0.841752
1375809988980,0.841589
1375810048980,0.847099
1375810108980,0.842722
1375810168980,0.840294
1375810228980,0.839076
1375810288980,0.847393
1375810348980,0.842668
1375810408980,0.842496
1375810468980,0.837273
1375810528980,0.844357
1375810588980,0.834441
1375810648980,0.841634
1375810708980,0.845535
1375810768980,0.838215
1375810828980,0.847597
1375810888980,0.853359
1375810948980,0.835836
1375811008980,0.843869
1375811068980,0.845519
1375811128980,0.841955
1375811188980,0.835848
1375811248980,0.844108
1375811308980,0.845819
1375811368980,0.846310
1375811428980,0.850464
1375811488980,0.838294
1375811548980,0.843377
1375811608980,0.838027
1375811668980,0.842433
1375811728980,0.848504
1375811788980,0.842846
1375811848980,0.850655
1375811908980,0.838957
1375811968980,0.847781
1375812028991,0.851448
1375812088991,0.847347
1375812148991,0.843788
1375812208991,0.846095
1375812268991,0.839344
1375812328991,0.847389
1375812388991,0.841035
1375812448991,0.845484
1375812508991,0.846804
1375812568991,0.848292
1375812628991,0.845842
1375812688991,0.845757
1375812748991,0.839125
1375812808991,0.842941
1375812868991,0.839515
1375812928991,0.854411
1375812988991,0.845506
1375813048991,0.849014
1375813108991,0.842702
1375813168991,0.842470
1375813228991,0.851144
1375813288991,0.842811
1375813348991,0.848388
1375813408991,0.845546
1375813468991,0.848215
1375813528991,0.841421
1375813588991,0.845954
1375813648991,0.854575
1375813708991,0.845017
1375813768991,0.843058
1375813828991,0.851498
1375813888991,0.850470
1375813948991,0.846229
1375814008991,0.848564
1375814068991,0.845707
1375814128991,0.849168
1375814188991,0.853489
1375814248991,0.848908
1375814308991,0.853374
1375814368991,0.846117
1375814428991,0.843355
1375814488991,0.852234
1375814548991,0.851292
1375814608991,0.847786
1375814668991,0.844075
1375814728991,0.843215
1375814788991,0.849140